When you browse on this site, cookies collect data to enhance your experience and personalize the content and advertising you see.
Visit our Privacy Policy to learn more. By continuing to use the site, you agree to this use of cookies and data.
  • In Österreich
  • Länderverzeichnis
  • Für 7 Tage
  • Wassertemperatur
  • Satellitenkarten
  • Wetterkarte
  • News
  • Widgets
  • user-avatar
    Anmelden

    Stündliche Wetter Zakopane

    Heute, 25 Mai, Samstag

    Zeit Temperatur Niederschläge Wind Luftdruck Luftfeuchtigkeit
    00:00 +8°C° 0 mm 1 m/S 681 mmHg 96%
    01:00 +8°C° 0 mm 1 m/S 680 mmHg 96%
    02:00 +7°C° 0 mm 0 m/S 681 mmHg 96%
    03:00 +7°C° 0 mm 0 m/S 681 mmHg 96%
    04:00 +7°C° 0 mm 0 m/S 681 mmHg 96%
    05:00 +8°C° 0 mm 0 m/S 681 mmHg 92%
    06:00 +11°C° 0 mm 1 m/S 682 mmHg 88%
    07:00 +13°C° 0 mm 1 m/S 682 mmHg 83%
    08:00 +14°C° 0 mm 1 m/S 683 mmHg 72%
    09:00 +16°C° 0 mm 1 m/S 683 mmHg 61%
    10:00 +17°C° 0 mm 2 m/S 683 mmHg 50%
    11:00 +18°C° 0 mm 2 m/S 683 mmHg 48%
    12:00 +19°C° 0 mm 2 m/S 683 mmHg 45%
    13:00 +19°C° 0 mm 2 m/S 683 mmHg 43%
    14:00 +19°C° 0 mm 2 m/S 683 mmHg 45%
    15:00 +18°C° 0 mm 2 m/S 683 mmHg 47%
    16:00 +18°C° 0 mm 2 m/S 683 mmHg 49%
    17:00 +16°C° 0 mm 2 m/S 682 mmHg 58%
    18:00 +14°C° 0 mm 1 m/S 682 mmHg 68%
    19:00 +12°C° 0 mm 1 m/S 681 mmHg 77%
    20:00 +11°C° 0 mm 1 m/S 682 mmHg 80%
    21:00 +10°C° 0 mm 1 m/S 682 mmHg 83%
    22:00 +9°C° 0 mm 1 m/S 682 mmHg 85%
    23:00 +9°C° 0 mm 1 m/S 682 mmHg 86%

    Morgen, 26 Mai, Sonntag

    Zeit Temperatur Niederschläge Wind Luftdruck Luftfeuchtigkeit
    00:00 +9°C° 0 mm 1 m/S 682 mmHg 86%
    01:00 +9°C° 0 mm 1 m/S 682 mmHg 87%
    02:00 +9°C° 0 mm 1 m/S 682 mmHg 87%
    03:00 +9°C° 0 mm 1 m/S 682 mmHg 87%
    04:00 +9°C° 0 mm 1 m/S 682 mmHg 87%
    05:00 +11°C° 0 mm 1 m/S 682 mmHg 80%
    06:00 +13°C° 0 mm 1 m/S 683 mmHg 72%
    07:00 +16°C° 0 mm 1 m/S 684 mmHg 65%
    08:00 +18°C° 0 mm 1 m/S 684 mmHg 61%
    09:00 +19°C° 0 mm 1 m/S 684 mmHg 57%
    10:00 +20°C° 0 mm 2 m/S 684 mmHg 52%
    11:00 +19°C° 0.7 mm 2 m/S 684 mmHg 62%
    12:00 +18°C° 0.7 mm 2 m/S 684 mmHg 71%
    13:00 +17°C° 0.7 mm 2 m/S 683 mmHg 80%
    14:00 +17°C° 0.8 mm 2 m/S 683 mmHg 81%
    15:00 +17°C° 0.8 mm 2 m/S 683 mmHg 83%
    16:00 +17°C° 0.8 mm 2 m/S 683 mmHg 84%
    17:00 +16°C° 0.2 mm 2 m/S 683 mmHg 88%
    18:00 +15°C° 0.2 mm 2 m/S 682 mmHg 91%
    19:00 +14°C° 0.2 mm 1 m/S 682 mmHg 94%
    20:00 +13°C° 0.1 mm 1 m/S 682 mmHg 95%
    21:00 +12°C° 0.1 mm 1 m/S 682 mmHg 96%
    22:00 +12°C° 0.1 mm 2 m/S 682 mmHg 97%
    23:00 +11°C° 0.1 mm 1 m/S 682 mmHg 97%

    übermorgen, 27 Mai, Montag

    Zeit Temperatur Niederschläge Wind Luftdruck Luftfeuchtigkeit
    00:00 +11°C° 0.1 mm 1 m/S 682 mmHg 97%
    01:00 +11°C° 0.1 mm 1 m/S 682 mmHg 97%
    02:00 +11°C° 0 mm 1 m/S 681 mmHg 96%
    03:00 +10°C° 0 mm 2 m/S 681 mmHg 96%
    04:00 +10°C° 0 mm 2 m/S 681 mmHg 95%
    05:00 +12°C° 0 mm 2 m/S 682 mmHg 92%
    06:00 +14°C° 0 mm 2 m/S 682 mmHg 89%
    07:00 +16°C° 0 mm 2 m/S 683 mmHg 86%
    08:00 +17°C° 0.1 mm 2 m/S 683 mmHg 76%
    09:00 +19°C° 0.1 mm 3 m/S 683 mmHg 66%
    10:00 +20°C° 0.1 mm 3 m/S 683 mmHg 56%
    11:00 +20°C° 0.2 mm 3 m/S 683 mmHg 59%
    12:00 +20°C° 0.2 mm 3 m/S 683 mmHg 63%
    13:00 +19°C° 0.2 mm 3 m/S 683 mmHg 67%
    14:00 +19°C° 0.4 mm 3 m/S 682 mmHg 70%
    15:00 +19°C° 0.4 mm 3 m/S 682 mmHg 73%
    16:00 +18°C° 0.4 mm 2 m/S 681 mmHg 76%
    17:00 +17°C° 0.1 mm 2 m/S 681 mmHg 80%
    18:00 +16°C° 0.1 mm 2 m/S 681 mmHg 84%
    19:00 +15°C° 0.1 mm 1 m/S 680 mmHg 88%
    20:00 +15°C° 0.4 mm 1 m/S 680 mmHg 91%
    21:00 +14°C° 0.4 mm 1 m/S 680 mmHg 93%
    22:00 +13°C° 0.4 mm 1 m/S 680 mmHg 95%
    23:00 +13°C° 2.8 mm 1 m/S 680 mmHg 96%

    28 Mai, Dienstag

    Zeit Temperatur Niederschläge Wind Luftdruck Luftfeuchtigkeit
    00:00 +14°C° 2.8 mm 1 m/S 680 mmHg 97%
    01:00 +14°C° 2.8 mm 1 m/S 679 mmHg 98%
    02:00 +14°C° 0.9 mm 1 m/S 679 mmHg 98%
    03:00 +14°C° 0.9 mm 1 m/S 679 mmHg 98%
    04:00 +14°C° 0.9 mm 1 m/S 678 mmHg 98%
    05:00 +15°C° 0 mm 2 m/S 679 mmHg 95%
    06:00 +16°C° 0 mm 2 m/S 679 mmHg 92%
    07:00 +17°C° 0 mm 2 m/S 679 mmHg 89%
    08:00 +18°C° 0.3 mm 2 m/S 679 mmHg 81%
    09:00 +19°C° 0.3 mm 2 m/S 679 mmHg 73%
    10:00 +20°C° 0.3 mm 2 m/S 679 mmHg 66%
    11:00 +19°C° 1.8 mm 2 m/S 678 mmHg 71%
    12:00 +19°C° 1.8 mm 3 m/S 678 mmHg 77%
    13:00 +18°C° 1.8 mm 3 m/S 678 mmHg 82%
    14:00 +18°C° 1.4 mm 2 m/S 677 mmHg 82%
    15:00 +18°C° 1.4 mm 2 m/S 677 mmHg 81%
    16:00 +18°C° 1.4 mm 2 m/S 677 mmHg 81%
    17:00 +17°C° 0.9 mm 2 m/S 677 mmHg 85%
    18:00 +16°C° 0.9 mm 2 m/S 677 mmHg 88%
    19:00 +15°C° 0.9 mm 2 m/S 677 mmHg 92%
    20:00 +14°C° 1.3 mm 1 m/S 677 mmHg 93%
    21:00 +14°C° 1.3 mm 1 m/S 677 mmHg 94%
    22:00 +13°C° 1.3 mm 1 m/S 677 mmHg 94%
    23:00 +13°C° 0.1 mm 1 m/S 677 mmHg 95%

    29 Mai, Mittwoch

    Zeit Temperatur Niederschläge Wind Luftdruck Luftfeuchtigkeit
    00:00 +11°C° 0.1 mm 0 m/S 677 mmHg 96%
    01:00 +11°C° 0.1 mm 0 m/S 677 mmHg 96%
    02:00 +11°C° 1 mm 0 m/S 678 mmHg 97%
    03:00 +12°C° 1 mm 1 m/S 678 mmHg 97%
    04:00 +12°C° 1 mm 1 m/S 678 mmHg 98%
    05:00 +12°C° 3.9 mm 1 m/S 679 mmHg 98%
    06:00 +12°C° 3.9 mm 1 m/S 679 mmHg 98%
    07:00 +10°C° 3.9 mm 2 m/S 680 mmHg 98%
    08:00 +10°C° 3 mm 2 m/S 680 mmHg 98%
    09:00 +9°C° 3 mm 2 m/S 681 mmHg 98%
    10:00 +9°C° 3 mm 2 m/S 681 mmHg 98%
    11:00 +8°C° 1.3 mm 2 m/S 682 mmHg 98%
    12:00 +8°C° 1.3 mm 2 m/S 682 mmHg 97%
    13:00 +8°C° 1.3 mm 2 m/S 683 mmHg 97%
    14:00 +8°C° 0.1 mm 3 m/S 683 mmHg 95%
    15:00 +9°C° 0.1 mm 3 m/S 683 mmHg 94%
    16:00 +9°C° 0.1 mm 3 m/S 684 mmHg 92%
    17:00 +8°C° 0.1 mm 3 m/S 684 mmHg 93%
    18:00 +8°C° 0.1 mm 2 m/S 684 mmHg 93%
    19:00 +8°C° 0.1 mm 2 m/S 685 mmHg 93%
    20:00 +8°C° 0.1 mm 2 m/S 685 mmHg 94%
    21:00 +7°C° 0.1 mm 2 m/S 686 mmHg 96%
    22:00 +7°C° 0.1 mm 2 m/S 686 mmHg 97%
    23:00 +7°C° 0 mm 2 m/S 686 mmHg 97%

    30 Mai, Donnerstag

    Zeit Temperatur Niederschläge Wind Luftdruck Luftfeuchtigkeit
    00:00 +7°C° 0 mm 2 m/S 686 mmHg 97%
    01:00 +6°C° 0 mm 2 m/S 686 mmHg 97%
    02:00 +6°C° 0.1 mm 2 m/S 686 mmHg 97%
    03:00 +6°C° 0.1 mm 2 m/S 687 mmHg 97%
    04:00 +6°C° 0.1 mm 2 m/S 687 mmHg 97%
    05:00 +6°C° 1.1 mm 2 m/S 687 mmHg 97%
    06:00 +6°C° 1.1 mm 2 m/S 687 mmHg 97%
    07:00 +6°C° 1.1 mm 2 m/S 687 mmHg 97%
    08:00 +6°C° 2.1 mm 2 m/S 687 mmHg 97%
    09:00 +6°C° 2.1 mm 2 m/S 687 mmHg 97%
    10:00 +6°C° 2.1 mm 2 m/S 687 mmHg 97%
    11:00 +7°C° 0.4 mm 2 m/S 687 mmHg 93%
    12:00 +9°C° 0.4 mm 1 m/S 687 mmHg 88%
    13:00 +10°C° 0.4 mm 1 m/S 687 mmHg 84%
    14:00 +10°C° 0 mm 1 m/S 687 mmHg 81%
    15:00 +11°C° 0 mm 1 m/S 687 mmHg 78%
    16:00 +11°C° 0 mm 1 m/S 687 mmHg 74%
    17:00 +10°C° 0 mm 1 m/S 687 mmHg 79%
    18:00 +9°C° 0 mm 1 m/S 686 mmHg 83%
    19:00 +9°C° 0 mm 1 m/S 686 mmHg 87%
    20:00 +8°C° 0 mm 1 m/S 686 mmHg 89%
    21:00 +6°C° 0 mm 0 m/S 686 mmHg 91%
    22:00 +5°C° 0 mm 0 m/S 686 mmHg 93%
    23:00 +6°C° 0 mm 0 m/S 686 mmHg 91%
    Mehr zeigen